User: anonymous   Login
Location: Newark
(25.6667°N, 138.4167°E)
Time: 23:17:17
(UTC+00:00)
Language:

N. Korean satellite - Orbit

View from above orbital plane
View from above orbital plane
View from above satellite
View from above satellite

Ground track
Ground track

The orbit data is extracted from the following two-line orbital elements,

1 39026U 12072A   19287.54690583  .00001446  00000-0  54341-4 0  9995
2 39026  97.2152 286.9168 0039129  44.3077 316.1284 15.28062067379592
Epoch (UTC): 14 October 2019 13:07:32
Eccentricity: 0.0039129
inclination: 97.2152°
perigee height: 455 km
apogee height: 508 km
right ascension of ascending node: 286.9168°
argument of perigee: 44.3077°
revolutions per day: 15.28062067
mean anomaly at epoch: 316.1284°
orbit number at epoch: 37959

The dashed part of the orbit path shows where the satellite is in the earth's shadow,  

DLR